User: anonymous   Login
Location: Ajisawe
(8.4333°N, 4.3833°E)
Time: 00:12:59
(UTC+00:00)
Language:

A-11 Canister half - Orbit

View from above orbital plane
View from above orbital plane
View from above satellite
View from above satellite

Ground track
Ground track

The orbit data is extracted from the following two-line orbital elements,

1 00051U 60009C   21108.45257302 -.00000119  00000-0 -32524-3 0  9993
2 00051  47.2105 123.8313 0106886 348.5441  11.2920 12.18274283701276
Epoch (UTC): 18 April 2021 10:51:42
Eccentricity: 0.0106886
inclination: 47.2105°
perigee height: 1515 km
apogee height: 1685 km
right ascension of ascending node: 123.8313°
argument of perigee: 348.5441°
revolutions per day: 12.18274283
mean anomaly at epoch: 11.2920°
orbit number at epoch: 70127

The dashed part of the orbit path shows where the satellite is in the earth's shadow,  

DLR